Williamsport, PA

9:54 PM EST on February 22, 2018 (GMT -0500)
Williamsport Rgnl

Weather History for KIPT - March, 2013

Change the Weather History Date:

Sunday, March 31, 2013

  Actual Average Record
Temperature  
Mean Temperature 39 °F 44 °F  
Max Temperature 48 °F 54 °F 87 °F (1998)
Min Temperature 29 °F 34 °F 15 °F (1923)
Degree Days  
Heating Degree Days 26 21  
Month to date heating degree days 870 829  
Since 1 July heating degree days 5036 5296  
Cooling Degree Days 0 0  
Month to date cooling degree days 0 0  
Year to date cooling degree days 0 0  
Moisture  
Dew Point 37 °F    
Average Humidity 71    
Maximum Humidity 100    
Minimum Humidity 42    
Precipitation  
Precipitation 0.40 in 0.11 in 1.86 in (1940)
Month to date precipitation 1.74 2.97  
Year to date precipitation 6.20 8.01  
Snow  
Snow 0.00 in 0.10 in 4.30 in (2015)
Month to date snowfall 5.6 6.9  
Since 1 July snowfall 32.7 34.9  
Snow Depth 0.00 in    
Sea Level Pressure  
Sea Level Pressure 29.84 in    
Wind  
Wind Speed 5 mph (SE)    
Max Wind Speed 18 mph    
Max Gust Speed 24 mph    
Visibility 5 miles    
Events Rain    
T = Trace of Precipitation, MM = Missing Value Source: NWS Daily Summary

Daily Weather History Graph

Daily Weather History Graph

Search for Another Location

Airport or City:

Trip Planner

Search our weather history database for the weather conditions in past years. The results will help you decide how hot, cold, wet, or windy it might be!

Date:

Astronomy

Mar. 31, 2013 Rise Set
Actual Time 6:52 AM EDT 7:31 PM EDT
Civil Twilight 6:24 AM EDT 7:59 PM EDT
Nautical Twilight 5:51 AM EDT 8:32 PM EDT
Astronomical Twilight 5:17 AM EDT 9:06 PM EDT
Moon No Moon Rise 9:35 AM EDT (3/31)
Length of Visible Light 13h 35m
Length of Day
12h 39m
Waning Gibbous, 78% of the Moon is Illuminated
Mar 31
Waning Gibbous
Apr 3
Last Quarter
Apr 10
New
Apr 18
First Quarter
Apr 25
Full

Hourly Weather History & Observations

Time (EDT) Temp. Windchill Dew Point Humidity Pressure Visibility Wind Dir Wind Speed Gust Speed Precip Events Conditions
12:54 AM 34.0 °F - 21.0 °F 59% 30.10 in 10.0 mi Calm Calm - N/A   Clear
1:54 AM 30.9 °F - 21.9 °F 69% 30.09 in 10.0 mi Calm Calm - N/A   Clear
2:54 AM 30.0 °F - 21.0 °F 69% 30.07 in 10.0 mi Calm Calm - N/A   Clear
3:54 AM 30.0 °F - 21.9 °F 72% 30.06 in 10.0 mi Calm Calm - N/A   Clear
4:54 AM 30.0 °F - 21.9 °F 72% 30.04 in 10.0 mi Calm Calm - N/A   Clear
5:54 AM 30.0 °F - 21.0 °F 69% 30.02 in 10.0 mi Calm Calm - N/A   Clear
6:54 AM 30.0 °F 26.5 °F 21.9 °F 72% 30.01 in 10.0 mi East 3.5 mph - N/A   Clear
7:54 AM 32.0 °F 28.7 °F 23.0 °F 69% 30.00 in 10.0 mi Variable 3.5 mph - N/A   Partly Cloudy
8:54 AM 39.9 °F 36.7 °F 26.1 °F 58% 29.97 in 10.0 mi ENE 4.6 mph - N/A   Clear
9:54 AM 46.9 °F - 24.1 °F 41% 29.94 in 10.0 mi Variable 6.9 mph - N/A   Overcast
10:54 AM 46.9 °F - 28.0 °F 48% 29.93 in 8.0 mi South 12.7 mph 17.3 mph 0.00 in Rain Light Rain
11:54 AM 46.9 °F - 33.1 °F 59% 29.92 in 10.0 mi SSE 10.4 mph 17.3 mph 0.02 in   Mostly Cloudy
12:54 PM 46.9 °F - 37.0 °F 68% 29.90 in 6.0 mi SE 17.3 mph 21.9 mph 0.00 in Rain Light Rain
1:54 PM 45.0 °F 40.6 °F 39.9 °F 82% 29.86 in 4.0 mi ESE 8.1 mph - 0.04 in Rain Light Rain
2:23 PM 44.6 °F 39.7 °F 41.0 °F 87% 29.83 in 4.0 mi East 9.2 mph - 0.02 in Rain Light Rain
2:54 PM 45.0 °F 40.6 °F 41.0 °F 86% 29.82 in 3.0 mi ENE 8.1 mph - 0.05 in Rain Rain
3:08 PM 44.6 °F 40.7 °F 42.8 °F 93% 29.80 in 2.5 mi ENE 6.9 mph - 0.02 in Rain Rain
3:18 PM 44.6 °F 40.2 °F 42.8 °F 93% 29.80 in 3.0 mi ENE 8.1 mph - 0.03 in Rain Light Rain
3:54 PM 45.0 °F 43.5 °F 42.1 °F 90% 29.79 in 3.0 mi South 3.5 mph - 0.05 in Rain Rain
4:14 PM 44.6 °F - 42.8 °F 93% 29.77 in 3.0 mi Calm Calm - 0.02 in Rain Light Rain
4:54 PM 45.0 °F - 43.0 °F 93% 29.76 in 2.0 mi Calm Calm - 0.06 in Rain Light Rain
5:12 PM 46.4 °F 43.5 °F 44.6 °F 93% 29.73 in 3.0 mi Variable 5.8 mph - 0.00 in Rain Light Rain
5:54 PM 46.0 °F 42.5 °F 44.1 °F 93% 29.73 in 3.0 mi ESE 6.9 mph - 0.02 in Rain Light Rain
6:37 PM 46.4 °F - 42.8 °F 87% 29.72 in 3.0 mi Calm Calm - 0.04 in Rain Rain
6:51 PM 46.4 °F - 44.6 °F 93% 29.72 in 2.0 mi Calm Calm - 0.06 in Rain Rain
6:54 PM 46.0 °F 43.9 °F 44.1 °F 93% 29.73 in 2.0 mi North 4.6 mph - 0.06 in Rain Rain
7:39 PM 46.4 °F - 44.6 °F 93% 29.72 in 3.0 mi Calm Calm - 0.05 in Rain Light Rain
7:54 PM 45.0 °F - 44.1 °F 97% 29.73 in 3.0 mi Calm Calm - 0.05 in Rain Light Rain
8:00 PM 44.6 °F - 44.6 °F 100% 29.72 in 2.5 mi Calm Calm - 0.01 in Rain Light Rain
8:08 PM 44.6 °F - 44.6 °F 100% 29.72 in 1.8 mi Calm Calm - 0.01 in Rain Light Rain
8:19 PM 44.6 °F - 44.6 °F 100% 29.72 in 2.0 mi Calm Calm - 0.02 in Rain Light Rain
8:54 PM 45.0 °F 43.5 °F 43.0 °F 93% 29.73 in 1.0 mi West 3.5 mph - 0.04 in Rain Light Rain
9:07 PM 44.6 °F 42.2 °F 42.8 °F 93% 29.73 in 1.5 mi West 4.6 mph - 0.00 in Rain Light Rain
9:54 PM 44.1 °F 40.8 °F 43.0 °F 96% 29.75 in 1.5 mi West 5.8 mph - 0.01 in   Overcast
10:01 PM 44.6 °F 42.2 °F 42.8 °F 93% 29.73 in 3.0 mi West 4.6 mph - N/A   Overcast
10:08 PM 44.6 °F 42.2 °F 42.8 °F 93% 29.73 in 4.0 mi WNW 4.6 mph - N/A   Overcast
10:27 PM 44.6 °F 43.1 °F 42.8 °F 93% 29.73 in 4.0 mi West 3.5 mph - N/A   Overcast
10:54 PM 44.1 °F - 42.1 °F 93% 29.74 in 4.0 mi Calm Calm - N/A   Overcast
11:54 PM 43.0 °F 41.3 °F 42.1 °F 97% 29.72 in 4.0 mi WSW 3.5 mph - N/A   Overcast